SFR511 FALE-FACT

Flight info

Callsign SFR511
Flight time 1h 54m
Altitude 36000
Route TUBIN1B TUBIN UZ3 ESRUK UQ51 GETEN GETEN1C
Aircraft B738/M-SDE2E3FGHIRWXY/LB1

Departure

Time 2026-05-05 06:58
Airport King Shaka International Airport (FALE)

Arrival

Time 2026-05-05 08:53
Airport Cape Town International Airport (FACT)
Time Latitude Longitude Altitude Speed Heading
2026-05-05 06:19 -29.61996 31.10549 296 ft 0 kts 306°
2026-05-05 06:44 -29.61999 31.10552 295 ft 3 kts 307°
2026-05-05 06:45 -29.62013 31.10575 299 ft 2 kts 307°
2026-05-05 06:45 -29.62030 31.10593 297 ft 4 kts 349°
2026-05-05 06:45 -29.62052 31.10588 297 ft 4 kts 36°
2026-05-05 06:45 -29.62061 31.10579 295 ft 1 kts 37°
2026-05-05 06:46 -29.62062 31.10579 295 ft 0 kts 37°
2026-05-05 06:50 -29.62045 31.10594 296 ft 8 kts 37°
2026-05-05 06:50 -29.61986 31.10656 299 ft 14 kts 68°
2026-05-05 06:50 -29.62026 31.10749 297 ft 13 kts 129°
2026-05-05 06:51 -29.62081 31.10831 296 ft 13 kts 127°
2026-05-05 06:51 -29.62059 31.10915 296 ft 13 kts 37°
2026-05-05 06:51 -29.61990 31.10975 295 ft 13 kts 37°
2026-05-05 06:51 -29.61901 31.11053 298 ft 20 kts 37°
2026-05-05 06:52 -29.61787 31.11152 295 ft 20 kts 37°
2026-05-05 06:52 -29.61676 31.11250 295 ft 20 kts 37°
2026-05-05 06:52 -29.61568 31.11344 297 ft 19 kts 37°
2026-05-05 06:52 -29.61461 31.11436 299 ft 20 kts 37°
2026-05-05 06:53 -29.61346 31.11536 302 ft 21 kts 37°
2026-05-05 06:53 -29.61232 31.11634 302 ft 20 kts 37°
2026-05-05 06:53 -29.61123 31.11731 303 ft 19 kts 38°
2026-05-05 06:53 -29.61017 31.11824 303 ft 19 kts 37°
2026-05-05 06:54 -29.60902 31.11924 300 ft 22 kts 37°
2026-05-05 06:54 -29.60783 31.12027 303 ft 21 kts 37°
2026-05-05 06:54 -29.60668 31.12127 301 ft 20 kts 37°
2026-05-05 06:54 -29.60556 31.12225 306 ft 20 kts 37°
2026-05-05 06:55 -29.60436 31.12329 309 ft 24 kts 36°
2026-05-05 06:55 -29.60306 31.12443 310 ft 23 kts 37°
2026-05-05 06:55 -29.60181 31.12552 308 ft 22 kts 37°
2026-05-05 06:55 -29.60059 31.12658 310 ft 22 kts 37°
2026-05-05 06:56 -29.59941 31.12761 305 ft 21 kts 37°
2026-05-05 06:56 -29.59830 31.12858 308 ft 17 kts 38°
2026-05-05 06:56 -29.59779 31.12960 307 ft 16 kts 110°
2026-05-05 06:56 -29.59843 31.13056 304 ft 14 kts 153°
2026-05-05 06:57 -29.59907 31.13031 303 ft 0 kts 217°
2026-05-05 06:57 -29.59983 31.12966 302 ft 44 kts 217°
2026-05-05 06:57 -29.60422 31.12588 304 ft 112 kts 217°
2026-05-05 06:58 -29.61201 31.11915 357 ft 161 kts 217°
2026-05-05 06:58 -29.62094 31.11078 939 ft 168 kts 219°
2026-05-05 06:58 -29.62994 31.10164 1665 ft 171 kts 219°
2026-05-05 06:58 -29.63950 31.09318 2332 ft 182 kts 216°
2026-05-05 06:59 -29.65029 31.08376 2596 ft 210 kts 216°
2026-05-05 06:59 -29.66236 31.07230 2767 ft 236 kts 231°
2026-05-05 06:59 -29.67091 31.05559 2999 ft 259 kts 242°
2026-05-05 06:59 -29.67961 31.03670 3477 ft 272 kts 243°
2026-05-05 07:00 -29.68847 31.01762 4439 ft 268 kts 244°
2026-05-05 07:00 -29.69730 30.99886 5357 ft 267 kts 245°
2026-05-05 07:00 -29.70627 30.97994 6109 ft 272 kts 245°
2026-05-05 07:00 -29.71541 30.96082 6898 ft 273 kts 244°
2026-05-05 07:01 -29.72477 30.94129 7473 ft 284 kts 244°
2026-05-05 07:01 -29.73441 30.92130 8210 ft 286 kts 244°
2026-05-05 07:01 -29.74412 30.90120 8986 ft 288 kts 244°
2026-05-05 07:01 -29.75394 30.88089 9727 ft 292 kts 244°
2026-05-05 07:02 -29.76389 30.86033 10350 ft 299 kts 244°
2026-05-05 07:02 -29.77439 30.83857 10511 ft 323 kts 244°
2026-05-05 07:02 -29.78570 30.81513 10705 ft 344 kts 244°
2026-05-05 07:02 -29.79735 30.79104 11168 ft 352 kts 244°
2026-05-05 07:03 -29.80933 30.76632 11870 ft 353 kts 244°
2026-05-05 07:03 -29.82128 30.74163 12628 ft 353 kts 244°
2026-05-05 07:03 -29.83326 30.71687 13317 ft 355 kts 244°
2026-05-05 07:03 -29.84528 30.69197 14013 ft 355 kts 245°
2026-05-05 07:04 -29.85733 30.66697 14576 ft 358 kts 245°
2026-05-05 07:04 -29.86948 30.64176 15140 ft 361 kts 245°
2026-05-05 07:04 -29.88171 30.61638 15749 ft 363 kts 245°
2026-05-05 07:04 -29.89388 30.59111 16340 ft 365 kts 245°
2026-05-05 07:05 -29.90621 30.56550 16924 ft 367 kts 246°
2026-05-05 07:05 -29.91865 30.53963 17458 ft 370 kts 246°
2026-05-05 07:05 -29.93118 30.51355 17999 ft 373 kts 246°
2026-05-05 07:05 -29.94376 30.48735 18499 ft 375 kts 246°
2026-05-05 07:06 -29.95644 30.46095 18935 ft 378 kts 246°
2026-05-05 07:06 -29.96922 30.43430 19360 ft 382 kts 246°
2026-05-05 07:06 -29.98214 30.40734 19789 ft 384 kts 246°
2026-05-05 07:06 -29.99511 30.38029 20233 ft 387 kts 246°
2026-05-05 07:07 -30.00819 30.35296 20629 ft 390 kts 246°
2026-05-05 07:07 -30.02139 30.32537 21083 ft 393 kts 247°
2026-05-05 07:07 -30.03447 30.29803 21509 ft 395 kts 247°
2026-05-05 07:07 -30.04804 30.27032 21910 ft 400 kts 246°
2026-05-05 07:08 -30.06208 30.24239 22303 ft 403 kts 246°
2026-05-05 07:08 -30.07629 30.21441 22732 ft 405 kts 246°
2026-05-05 07:08 -30.09059 30.18626 23143 ft 407 kts 246°
2026-05-05 07:08 -30.10492 30.15791 23517 ft 411 kts 246°
2026-05-05 07:09 -30.11938 30.12921 23813 ft 414 kts 246°
2026-05-05 07:09 -30.13385 30.10045 24187 ft 415 kts 246°
2026-05-05 07:09 -30.14344 30.08134 24406 ft 416 kts 247°
2026-05-05 07:09 -30.15801 30.05227 24735 ft 418 kts 247°
2026-05-05 07:10 -30.17262 30.02311 25054 ft 420 kts 247°
2026-05-05 07:10 -30.18728 29.99381 25380 ft 422 kts 247°
2026-05-05 07:10 -30.20201 29.96433 25677 ft 424 kts 248°
2026-05-05 07:10 -30.21679 29.93477 26014 ft 426 kts 248°
2026-05-05 07:11 -30.23164 29.90504 26345 ft 427 kts 248°
2026-05-05 07:11 -30.24651 29.87523 26625 ft 430 kts 248°
2026-05-05 07:11 -30.26146 29.84525 26862 ft 431 kts 248°
2026-05-05 07:11 -30.27649 29.81509 27172 ft 433 kts 248°
2026-05-05 07:12 -30.29089 29.78454 27448 ft 431 kts 251°
2026-05-05 07:12 -30.30385 29.75331 27715 ft 431 kts 253°
2026-05-05 07:12 -30.31636 29.72175 27972 ft 432 kts 253°
2026-05-05 07:12 -30.32863 29.69037 28241 ft 434 kts 253°
2026-05-05 07:13 -30.34111 29.65847 28506 ft 436 kts 253°
2026-05-05 07:13 -30.35368 29.62652 28769 ft 437 kts 253°
2026-05-05 07:13 -30.36640 29.59435 29039 ft 439 kts 253°
2026-05-05 07:13 -30.37916 29.56225 29334 ft 439 kts 253°
2026-05-05 07:14 -30.39194 29.53017 29678 ft 438 kts 253°
2026-05-05 07:14 -30.40469 29.49825 30146 ft 434 kts 253°
2026-05-05 07:14 -30.41732 29.46662 30527 ft 431 kts 254°
2026-05-05 07:14 -30.42988 29.43511 30894 ft 429 kts 254°
2026-05-05 07:15 -30.44234 29.40378 31245 ft 427 kts 254°
2026-05-05 07:15 -30.45471 29.37265 31600 ft 424 kts 255°
2026-05-05 07:15 -30.46701 29.34164 31951 ft 422 kts 255°
2026-05-05 07:15 -30.47925 29.31073 32291 ft 421 kts 255°
2026-05-05 07:16 -30.49141 29.28004 32664 ft 418 kts 255°
2026-05-05 07:16 -30.50348 29.24956 33032 ft 415 kts 256°
2026-05-05 07:16 -30.51553 29.21907 33296 ft 416 kts 255°
2026-05-05 07:16 -30.52757 29.18849 33457 ft 418 kts 255°
2026-05-05 07:17 -30.53964 29.15789 33743 ft 417 kts 255°
2026-05-05 07:17 -30.55167 29.12740 34083 ft 414 kts 256°
2026-05-05 07:17 -30.56364 29.09709 34328 ft 412 kts 256°
2026-05-05 07:17 -30.57555 29.06688 34614 ft 409 kts 256°
2026-05-05 07:18 -30.58734 29.03690 34879 ft 408 kts 256°
2026-05-05 07:18 -30.59908 29.00705 35159 ft 406 kts 257°
2026-05-05 07:18 -30.61079 28.97722 35386 ft 404 kts 257°
2026-05-05 07:18 -30.62242 28.94758 35637 ft 404 kts 257°
2026-05-05 07:19 -30.63392 28.91816 35734 ft 406 kts 257°
2026-05-05 07:19 -30.64562 28.88825 35900 ft 406 kts 257°
2026-05-05 07:19 -30.65732 28.85836 35980 ft 407 kts 257°
2026-05-05 07:20 -30.68081 28.79828 35981 ft 407 kts 257°
2026-05-05 07:20 -30.70416 28.73853 35982 ft 404 kts 257°
2026-05-05 07:21 -30.72715 28.67943 36002 ft 401 kts 257°
2026-05-05 07:21 -30.75021 28.62029 35990 ft 402 kts 257°
2026-05-05 07:22 -30.77328 28.56082 35977 ft 405 kts 257°
2026-05-05 07:22 -30.79653 28.50087 35989 ft 406 kts 257°
2026-05-05 07:23 -30.81981 28.44088 35982 ft 407 kts 257°
2026-05-05 07:23 -30.84307 28.38081 35997 ft 407 kts 258°
2026-05-05 07:24 -30.86614 28.32104 35995 ft 408 kts 258°
2026-05-05 07:24 -30.88940 28.26061 35990 ft 409 kts 259°
2026-05-05 07:25 -30.91244 28.19995 35997 ft 411 kts 257°
2026-05-05 07:25 -30.93598 28.13940 35996 ft 409 kts 258°
2026-05-05 07:26 -30.95909 28.07879 35988 ft 409 kts 258°
2026-05-05 07:26 -30.98224 28.01791 35994 ft 412 kts 257°
2026-05-05 07:27 -31.00553 27.95665 35986 ft 414 kts 258°
2026-05-05 07:27 -31.02882 27.89557 35977 ft 415 kts 257°
2026-05-05 07:28 -31.05241 27.83401 35975 ft 416 kts 257°
2026-05-05 07:28 -31.07598 27.77242 35972 ft 415 kts 257°
2026-05-05 07:29 -31.09943 27.71097 35976 ft 414 kts 258°
2026-05-05 07:29 -31.12275 27.64971 35978 ft 412 kts 258°
2026-05-05 07:30 -31.14596 27.58866 35968 ft 410 kts 258°
2026-05-05 07:30 -31.18033 27.49798 35973 ft 407 kts 258°
2026-05-05 07:31 -31.20322 27.43744 35968 ft 408 kts 258°
2026-05-05 07:31 -31.22610 27.37683 35985 ft 408 kts 258°
2026-05-05 07:32 -31.24899 27.31614 35982 ft 408 kts 258°
2026-05-05 07:32 -31.27186 27.25538 35981 ft 408 kts 258°
2026-05-05 07:33 -31.29461 27.19481 35980 ft 409 kts 258°
2026-05-05 07:33 -31.31748 27.13384 35981 ft 410 kts 258°
2026-05-05 07:34 -31.34040 27.07270 35959 ft 411 kts 258°
2026-05-05 07:34 -31.36330 27.01137 35957 ft 411 kts 258°
2026-05-05 07:35 -31.38611 26.95006 35969 ft 411 kts 258°
2026-05-05 07:35 -31.40874 26.88851 35966 ft 411 kts 258°
2026-05-05 07:36 -31.43134 26.82690 35970 ft 413 kts 259°
2026-05-05 07:36 -31.45399 26.76511 35968 ft 413 kts 258°
2026-05-05 07:37 -31.47649 26.70365 35950 ft 413 kts 258°
2026-05-05 07:37 -31.49914 26.64166 35954 ft 413 kts 258°
2026-05-05 07:38 -31.52176 26.57962 35952 ft 415 kts 258°
2026-05-05 07:38 -31.54432 26.51762 35945 ft 416 kts 258°
2026-05-05 07:39 -31.56720 26.45505 35917 ft 416 kts 258°
2026-05-05 07:39 -31.58998 26.39300 35955 ft 413 kts 258°
2026-05-05 07:40 -31.61264 26.33092 35947 ft 414 kts 259°
2026-05-05 07:40 -31.63534 26.26869 35947 ft 415 kts 258°
2026-05-05 07:41 -31.65814 26.20603 35937 ft 418 kts 258°
2026-05-05 07:41 -31.68089 26.14339 35933 ft 420 kts 258°
2026-05-05 07:42 -31.70381 26.08019 35931 ft 422 kts 258°
2026-05-05 07:42 -31.72684 26.01663 35925 ft 422 kts 258°
2026-05-05 07:43 -31.74983 25.95305 35918 ft 423 kts 258°
2026-05-05 07:43 -31.77281 25.88934 35932 ft 423 kts 259°
2026-05-05 07:44 -31.79573 25.82570 35927 ft 422 kts 259°
2026-05-05 07:44 -31.81857 25.76218 35928 ft 420 kts 259°
2026-05-05 07:45 -31.84109 25.69944 35931 ft 418 kts 259°
2026-05-05 07:45 -31.86360 25.63655 35970 ft 417 kts 259°
2026-05-05 07:46 -31.88603 25.57374 35953 ft 416 kts 259°
2026-05-05 07:46 -31.90837 25.51108 35943 ft 415 kts 259°
2026-05-05 07:47 -31.93069 25.44834 35933 ft 415 kts 259°
2026-05-05 07:47 -31.95298 25.38557 35937 ft 416 kts 259°
2026-05-05 07:48 -31.97532 25.32256 35984 ft 417 kts 259°
2026-05-05 07:48 -31.99768 25.25933 35969 ft 418 kts 259°
2026-05-05 07:49 -32.02012 25.19584 35960 ft 420 kts 259°
2026-05-05 07:49 -32.04241 25.13264 35957 ft 421 kts 259°
2026-05-05 07:50 -32.06492 25.06871 35960 ft 422 kts 259°
2026-05-05 07:50 -32.08742 25.00467 36005 ft 422 kts 259°
2026-05-05 07:51 -32.10988 24.94062 35974 ft 423 kts 260°
2026-05-05 07:51 -32.13236 24.87639 35951 ft 423 kts 260°
2026-05-05 07:52 -32.15476 24.81233 35952 ft 421 kts 260°
2026-05-05 07:52 -32.17699 24.74854 35973 ft 420 kts 260°
2026-05-05 07:53 -32.19904 24.68517 35962 ft 419 kts 260°
2026-05-05 07:53 -32.22113 24.62155 35968 ft 418 kts 260°
2026-05-05 07:54 -32.24315 24.55800 35989 ft 418 kts 260°
2026-05-05 07:54 -32.26511 24.49450 35978 ft 417 kts 260°
2026-05-05 07:55 -32.28331 24.44186 35993 ft 416 kts 260°
2026-05-05 07:55 -32.30513 24.37853 36023 ft 416 kts 260°
2026-05-05 07:56 -32.32691 24.31515 35996 ft 416 kts 260°
2026-05-05 07:56 -32.34871 24.25166 36006 ft 416 kts 260°
2026-05-05 07:57 -32.37046 24.18819 35997 ft 416 kts 260°
2026-05-05 07:57 -32.39218 24.12465 35991 ft 417 kts 260°
2026-05-05 07:58 -32.41378 24.06139 36030 ft 417 kts 260°
2026-05-05 07:58 -32.43555 23.99747 36003 ft 418 kts 260°
2026-05-05 07:59 -32.45723 23.93346 35995 ft 419 kts 260°
2026-05-05 07:59 -32.47892 23.86917 35992 ft 420 kts 260°
2026-05-05 08:00 -32.50043 23.80532 35995 ft 420 kts 261°
2026-05-05 08:00 -32.52209 23.74093 36040 ft 421 kts 260°
2026-05-05 08:01 -32.54381 23.67619 36011 ft 422 kts 260°
2026-05-05 08:01 -32.56554 23.61132 35994 ft 423 kts 260°
2026-05-05 08:02 -32.58724 23.54645 35989 ft 423 kts 260°
2026-05-05 08:02 -32.60890 23.48152 36003 ft 423 kts 260°
2026-05-05 08:03 -32.63042 23.41689 36048 ft 423 kts 260°
2026-05-05 08:03 -32.65208 23.35176 36015 ft 424 kts 259°
2026-05-05 08:04 -32.67383 23.28654 36002 ft 425 kts 259°
2026-05-05 08:04 -32.69558 23.22121 36004 ft 426 kts 259°
2026-05-05 08:05 -32.71733 23.15568 36004 ft 426 kts 260°
2026-05-05 08:05 -32.73893 23.09049 36036 ft 427 kts 259°
2026-05-05 08:06 -32.76070 23.02460 36016 ft 428 kts 259°
2026-05-05 08:06 -32.78248 22.95861 36012 ft 429 kts 259°
2026-05-05 08:07 -32.80422 22.89258 36012 ft 429 kts 259°
2026-05-05 08:07 -32.82594 22.82648 36019 ft 429 kts 259°
2026-05-05 08:08 -32.84764 22.76026 36036 ft 430 kts 258°
2026-05-05 08:08 -32.86936 22.69386 36024 ft 432 kts 258°
2026-05-05 08:09 -32.89101 22.62754 36017 ft 433 kts 258°
2026-05-05 08:09 -32.91285 22.56067 36034 ft 434 kts 257°
2026-05-05 08:10 -32.93798 22.49453 36030 ft 439 kts 254°
2026-05-05 08:10 -32.96471 22.42897 36057 ft 441 kts 252°
2026-05-05 08:11 -32.99137 22.36317 36037 ft 441 kts 253°
2026-05-05 08:11 -33.01772 22.29722 36028 ft 440 kts 253°
2026-05-05 08:12 -33.04373 22.23163 36024 ft 440 kts 253°
2026-05-05 08:12 -33.06982 22.16566 36022 ft 439 kts 253°
2026-05-05 08:13 -33.09583 22.09978 36032 ft 439 kts 252°
2026-05-05 08:13 -33.12181 22.03386 36028 ft 439 kts 252°
2026-05-05 08:14 -33.14771 21.96800 36028 ft 438 kts 252°
2026-05-05 08:14 -33.17361 21.90202 36031 ft 438 kts 252°
2026-05-05 08:15 -33.19944 21.83609 36034 ft 438 kts 252°
2026-05-05 08:15 -33.22512 21.77040 36043 ft 440 kts 251°
2026-05-05 08:16 -33.25099 21.70411 36031 ft 441 kts 251°
2026-05-05 08:16 -33.27694 21.63751 36028 ft 442 kts 251°
2026-05-05 08:17 -33.30292 21.57068 36033 ft 443 kts 251°
2026-05-05 08:17 -33.32887 21.50380 36037 ft 444 kts 251°
2026-05-05 08:18 -33.35478 21.43688 36038 ft 445 kts 251°
2026-05-05 08:18 -33.38078 21.36961 36047 ft 446 kts 251°
2026-05-05 08:19 -33.40681 21.30214 36038 ft 447 kts 251°
2026-05-05 08:19 -33.43286 21.23447 36065 ft 447 kts 251°
2026-05-05 08:20 -33.45882 21.16689 36043 ft 447 kts 251°
2026-05-05 08:20 -33.48479 21.09920 36061 ft 446 kts 250°
2026-05-05 08:21 -33.51058 21.03178 36059 ft 445 kts 250°
2026-05-05 08:21 -33.53611 20.96492 36025 ft 440 kts 250°
2026-05-05 08:22 -33.54883 20.93158 35676 ft 437 kts 250°
2026-05-05 08:22 -33.56140 20.89861 35317 ft 432 kts 250°
2026-05-05 08:22 -33.57385 20.86589 34935 ft 429 kts 250°
2026-05-05 08:22 -33.58619 20.83343 34533 ft 427 kts 251°
2026-05-05 08:23 -33.59848 20.80105 34131 ft 425 kts 250°
2026-05-05 08:23 -33.61071 20.76877 33633 ft 424 kts 250°
2026-05-05 08:23 -33.62274 20.73699 33209 ft 421 kts 250°
2026-05-05 08:23 -33.63481 20.70513 32780 ft 418 kts 250°
2026-05-05 08:24 -33.64680 20.67342 32377 ft 415 kts 250°
2026-05-05 08:24 -33.65870 20.64193 31969 ft 413 kts 250°
2026-05-05 08:24 -33.67051 20.61063 31566 ft 410 kts 250°
2026-05-05 08:24 -33.68226 20.57948 31164 ft 407 kts 250°
2026-05-05 08:25 -33.69391 20.54853 30766 ft 405 kts 250°
2026-05-05 08:25 -33.70548 20.51780 30361 ft 403 kts 250°
2026-05-05 08:25 -33.71700 20.48716 29965 ft 401 kts 250°
2026-05-05 08:25 -33.72844 20.45668 29532 ft 398 kts 248°
2026-05-05 08:26 -33.73978 20.42645 29080 ft 395 kts 248°
2026-05-05 08:26 -33.75104 20.39646 28670 ft 392 kts 248°
2026-05-05 08:26 -33.76202 20.36715 28269 ft 388 kts 248°
2026-05-05 08:26 -33.77304 20.33774 27897 ft 384 kts 248°
2026-05-05 08:27 -33.78396 20.30852 27511 ft 381 kts 248°
2026-05-05 08:27 -33.79479 20.27955 27133 ft 379 kts 248°
2026-05-05 08:27 -33.80555 20.25074 26758 ft 376 kts 248°
2026-05-05 08:27 -33.81625 20.22205 26394 ft 373 kts 248°
2026-05-05 08:28 -33.82681 20.19371 26027 ft 370 kts 248°
2026-05-05 08:28 -33.83731 20.16552 25669 ft 368 kts 248°
2026-05-05 08:28 -33.84773 20.13750 25310 ft 365 kts 248°
2026-05-05 08:28 -33.85809 20.10962 24970 ft 363 kts 248°
2026-05-05 08:29 -33.86838 20.08192 24617 ft 361 kts 248°
2026-05-05 08:29 -33.87861 20.05435 24260 ft 360 kts 248°
2026-05-05 08:29 -33.88866 20.02726 23902 ft 359 kts 248°
2026-05-05 08:30 -33.90890 19.97260 23125 ft 356 kts 248°
2026-05-05 08:30 -33.91893 19.94546 22756 ft 353 kts 248°
2026-05-05 08:30 -33.92888 19.91853 22400 ft 350 kts 247°
2026-05-05 08:30 -33.93875 19.89179 22053 ft 348 kts 247°
2026-05-05 08:31 -33.94853 19.86530 21704 ft 345 kts 247°
2026-05-05 08:31 -33.95825 19.83896 21367 ft 342 kts 247°
2026-05-05 08:31 -33.96787 19.81284 21030 ft 340 kts 247°
2026-05-05 08:31 -33.97799 19.78721 20690 ft 338 kts 243°
2026-05-05 08:32 -33.98875 19.76206 20346 ft 336 kts 242°
2026-05-05 08:32 -33.99958 19.73717 20017 ft 335 kts 242°
2026-05-05 08:32 -34.01036 19.71230 19692 ft 333 kts 242°
2026-05-05 08:32 -34.02100 19.68756 19363 ft 331 kts 242°
2026-05-05 08:33 -34.03151 19.66295 19035 ft 329 kts 242°
2026-05-05 08:33 -34.04196 19.63841 18727 ft 328 kts 242°
2026-05-05 08:33 -34.05180 19.61399 18394 ft 327 kts 250°
2026-05-05 08:33 -34.05505 19.58697 18042 ft 327 kts 274°
2026-05-05 08:34 -34.05209 19.55989 17726 ft 324 kts 278°
2026-05-05 08:34 -34.04827 19.53315 17382 ft 323 kts 279°
2026-05-05 08:34 -34.04435 19.50653 17063 ft 321 kts 279°
2026-05-05 08:34 -34.04053 19.48011 16742 ft 319 kts 279°
2026-05-05 08:35 -34.03681 19.45387 16427 ft 317 kts 278°
2026-05-05 08:35 -34.03315 19.42773 16109 ft 315 kts 278°
2026-05-05 08:35 -34.02956 19.40175 15801 ft 313 kts 278°
2026-05-05 08:35 -34.02607 19.37630 15578 ft 308 kts 278°
2026-05-05 08:36 -34.02261 19.35113 15444 ft 301 kts 278°
2026-05-05 08:36 -34.01923 19.32655 15310 ft 294 kts 277°
2026-05-05 08:36 -34.01592 19.30257 15185 ft 286 kts 278°
2026-05-05 08:36 -34.01285 19.27906 14946 ft 283 kts 276°
2026-05-05 08:37 -34.01026 19.25563 14686 ft 281 kts 276°
2026-05-05 08:37 -34.00780 19.23232 14414 ft 280 kts 276°
2026-05-05 08:37 -34.00534 19.20907 14127 ft 280 kts 276°
2026-05-05 08:37 -34.00287 19.18583 13851 ft 279 kts 276°
2026-05-05 08:38 -34.00037 19.16265 13526 ft 279 kts 276°
2026-05-05 08:38 -33.99786 19.13947 13224 ft 278 kts 276°
2026-05-05 08:38 -33.99539 19.11672 12935 ft 277 kts 275°
2026-05-05 08:38 -33.99284 19.09348 12652 ft 276 kts 275°
2026-05-05 08:39 -33.99036 19.07081 12369 ft 275 kts 275°
2026-05-05 08:39 -33.98792 19.04802 12082 ft 273 kts 275°
2026-05-05 08:39 -33.98543 19.02543 11825 ft 271 kts 276°
2026-05-05 08:39 -33.98291 19.00293 11550 ft 270 kts 276°
2026-05-05 08:40 -33.98041 18.98053 11284 ft 269 kts 276°
2026-05-05 08:40 -33.97795 18.95828 11018 ft 268 kts 276°
2026-05-05 08:40 -33.97548 18.93605 10745 ft 267 kts 276°
2026-05-05 08:40 -33.97302 18.91395 10468 ft 266 kts 276°
2026-05-05 08:41 -33.97139 18.89937 10299 ft 265 kts 276°
2026-05-05 08:41 -33.96902 18.87031 9936 ft 262 kts 262°
2026-05-05 08:41 -33.97331 18.84917 9681 ft 259 kts 251°
2026-05-05 08:41 -33.97846 18.82826 9394 ft 262 kts 252°
2026-05-05 08:42 -33.98347 18.80712 9127 ft 262 kts 253°
2026-05-05 08:42 -33.98900 18.78632 8843 ft 260 kts 242°
2026-05-05 08:42 -33.99618 18.77461 8646 ft 256 kts 220°
2026-05-05 08:42 -34.01153 18.76473 8425 ft 250 kts 193°
2026-05-05 08:43 -34.02847 18.76361 8180 ft 247 kts 172°
2026-05-05 08:43 -34.04517 18.76825 7956 ft 243 kts 165°
2026-05-05 08:43 -34.06111 18.77384 7706 ft 235 kts 165°
2026-05-05 08:43 -34.07654 18.77927 7444 ft 227 kts 165°
2026-05-05 08:44 -34.09146 18.78440 7203 ft 219 kts 165°
2026-05-05 08:44 -34.10590 18.78928 6994 ft 211 kts 166°
2026-05-05 08:44 -34.11975 18.79394 6798 ft 202 kts 166°
2026-05-05 08:44 -34.13304 18.79840 6591 ft 194 kts 167°
2026-05-05 08:45 -34.14596 18.80268 6302 ft 192 kts 166°
2026-05-05 08:45 -34.15860 18.80680 6064 ft 188 kts 167°
2026-05-05 08:45 -34.17134 18.80899 5810 ft 183 kts 193°
2026-05-05 08:45 -34.18198 18.80169 5657 ft 180 kts 234°
2026-05-05 08:46 -34.18598 18.78750 5522 ft 183 kts 269°
2026-05-05 08:46 -34.18520 18.77201 5370 ft 186 kts 274°
2026-05-05 08:46 -34.18310 18.75672 5225 ft 182 kts 281°
2026-05-05 08:46 -34.18046 18.74197 5075 ft 177 kts 281°
2026-05-05 08:47 -34.17784 18.72744 4908 ft 177 kts 281°
2026-05-05 08:47 -34.17525 18.71285 4711 ft 179 kts 281°
2026-05-05 08:47 -34.17263 18.69793 4463 ft 183 kts 281°
2026-05-05 08:47 -34.17007 18.68294 4227 ft 181 kts 281°
2026-05-05 08:48 -34.16548 18.66917 3882 ft 183 kts 311°
2026-05-05 08:48 -34.15415 18.66263 3601 ft 182 kts 346°
2026-05-05 08:48 -34.14195 18.65858 3320 ft 179 kts 341°
2026-05-05 08:48 -34.13007 18.65437 3052 ft 176 kts 342°
2026-05-05 08:49 -34.11834 18.65050 2828 ft 175 kts 342°
2026-05-05 08:49 -34.10654 18.64671 2586 ft 173 kts 343°
2026-05-05 08:49 -34.09524 18.64312 2366 ft 162 kts 342°
2026-05-05 08:49 -34.08488 18.63983 2189 ft 150 kts 343°
2026-05-05 08:50 -34.07460 18.63655 1949 ft 148 kts 343°
2026-05-05 08:50 -34.06482 18.63342 1756 ft 145 kts 343°
2026-05-05 08:50 -34.05506 18.63033 1538 ft 144 kts 345°
2026-05-05 08:50 -34.04530 18.62722 1345 ft 146 kts 345°
2026-05-05 08:51 -34.03547 18.62409 1142 ft 147 kts 344°
2026-05-05 08:51 -34.02559 18.62094 941 ft 147 kts 346°
2026-05-05 08:51 -34.01581 18.61784 735 ft 145 kts 347°
2026-05-05 08:51 -34.00614 18.61481 576 ft 142 kts 347°
2026-05-05 08:52 -33.99630 18.61165 375 ft 155 kts 347°
2026-05-05 08:52 -33.98608 18.60831 173 ft 145 kts 345°
2026-05-05 08:52 -33.97726 18.60555 153 ft 112 kts 346°
2026-05-05 08:52 -33.97114 18.60364 154 ft 70 kts 345°
2026-05-05 08:53 -33.96746 18.60248 157 ft 47 kts 345°
2026-05-05 08:53 -33.96457 18.60157 156 ft 41 kts 345°
2026-05-05 08:53 -33.96193 18.60073 153 ft 34 kts 345°
2026-05-05 08:53 -33.96045 18.60000 153 ft 19 kts 310°
2026-05-05 08:54 -33.96080 18.59909 153 ft 12 kts 225°
2026-05-05 08:54 -33.96137 18.59840 152 ft 11 kts 226°
2026-05-05 08:54 -33.96191 18.59770 152 ft 11 kts 226°
2026-05-05 08:54 -33.96256 18.59727 153 ft 11 kts 179°
2026-05-05 08:55 -33.96336 18.59743 153 ft 15 kts 170°
2026-05-05 08:55 -33.96439 18.59765 153 ft 15 kts 170°
2026-05-05 08:55 -33.96542 18.59788 153 ft 15 kts 167°
2026-05-05 08:55 -33.96639 18.59816 153 ft 14 kts 165°
2026-05-05 08:56 -33.96731 18.59845 153 ft 13 kts 165°
2026-05-05 08:56 -33.96819 18.59873 153 ft 13 kts 165°
2026-05-05 08:56 -33.96905 18.59901 153 ft 13 kts 165°
2026-05-05 08:56 -33.96976 18.59924 153 ft 8 kts 164°
2026-05-05 08:57 -33.97016 18.59922 153 ft 6 kts 224°
2026-05-05 08:57 -33.97029 18.59878 153 ft 6 kts 255°
2026-05-05 08:57 -33.97035 18.59851 153 ft 0 kts 256°